Location: Eastlake (historical)
(39.0077°N, 122.6678°W)
Time: 03:07:08
(UTC+00:00)

OAO 3 Rocket - Pass Details

Date: 25 November 2020
Orbit: 629 x 682 km, 35.0° (Epoch: 24 January)

Event Time Altitude Azimuth Distance (km) Brightness Sun altitude
Exits shadow 13:42:41 20° 245° (WSW) 1,467 4.5 -15.8°
Maximum altitude 13:45:02 31° 199° (SSW) 1,114 4.3 -15.4°
Drops below altitude 10° 13:49:11 10° 137° (SE) 2,024 6.6 -14.6°
Sets 13:51:45 0° 127° (SE) 2,942 7.9 -14.1°
